TimeEDT,TemperatureF,Dew PointF,Humidity,Sea Level PressureIn,VisibilityMPH,Wind Direction,Wind SpeedMPH,Gust SpeedMPH,PrecipitationIn,Events,Conditions,WindDirDegrees,DateUTC
12:53 AM,45.0,34.0,65,30.12,10.0,NNE,6.9,-,N/A,,Overcast,30,2013-05-13 04:53:00
1:53 AM,44.1,34.0,68,30.12,10.0,NE,8.1,-,N/A,,Overcast,40,2013-05-13 05:53:00
2:53 AM,42.1,32.0,67,30.11,10.0,East,5.8,-,N/A,,Mostly Cloudy,80,2013-05-13 06:53:00
3:53 AM,43.0,30.0,60,30.11,10.0,East,3.5,-,N/A,,Overcast,80,2013-05-13 07:53:00
4:53 AM,42.1,32.0,67,30.11,10.0,Calm,Calm,-,N/A,,Overcast,0,2013-05-13 08:53:00
5:53 AM,41.0,33.1,73,30.11,10.0,South,3.5,-,N/A,,Overcast,170,2013-05-13 09:53:00
6:53 AM,39.9,33.1,77,30.12,10.0,Calm,Calm,-,N/A,,Clear,0,2013-05-13 10:53:00
7:53 AM,43.0,34.0,71,30.14,10.0,South,4.6,-,N/A,,Mostly Cloudy,180,2013-05-13 11:53:00
8:53 AM,46.0,32.0,58,30.16,10.0,SE,3.5,-,N/A,,Clear,140,2013-05-13 12:53:00
9:53 AM,50.0,33.1,52,30.18,10.0,Calm,Calm,-,N/A,,Clear,0,2013-05-13 13:53:00
10:53 AM,53.1,34.0,48,30.18,10.0,North,4.6,-,N/A,,Clear,10,2013-05-13 14:53:00
11:53 AM,54.0,28.0,37,30.18,10.0,NW,9.2,-,N/A,,Scattered Clouds,310,2013-05-13 15:53:00
12:53 PM,54.0,30.0,40,30.17,10.0,WNW,8.1,-,N/A,,Overcast,300,2013-05-13 16:53:00
1:53 PM,57.0,28.9,34,30.16,10.0,West,11.5,19.6,N/A,,Mostly Cloudy,280,2013-05-13 17:53:00
2:53 PM,57.0,27.0,32,30.16,10.0,NW,10.4,19.6,N/A,,Mostly Cloudy,310,2013-05-13 18:53:00
4:53 PM,57.0,24.1,28,30.14,10.0,WNW,9.2,-,N/A,,Partly Cloudy,300,2013-05-13 20:53:00
5:53 PM,59.0,26.1,28,30.13,10.0,WNW,11.5,18.4,N/A,,Scattered Clouds,290,2013-05-13 21:53:00
6:53 PM,57.9,25.0,28,30.12,10.0,WNW,11.5,-,N/A,,Partly Cloudy,300,2013-05-13 22:53:00
8:53 PM,53.1,28.9,40,30.14,10.0,Calm,Calm,-,N/A,,Clear,0,2013-05-14 00:53:00
9:53 PM,50.0,30.0,46,30.15,10.0,Calm,Calm,-,N/A,,Clear,0,2013-05-14 01:53:00
10:53 PM,48.9,30.0,48,30.15,10.0,SSW,4.6,-,N/A,,Clear,200,2013-05-14 02:53:00
11:53 PM,48.0,30.0,50,30.14,10.0,SSE,3.5,-,N/A,,Clear,160,2013-05-14 03:53:00